sat.trackr.live / text

‹ back to catalog

INMARSAT 5-F2

NORAD 40384 · 2015-005A

PAYLOAD ACTIVE UNKNOWN

§ Identity

Operator
Country
IM
Launch date
2015-02-01
Launch site
TYMSC
Launch vehicle
Mass (kg)
RCS (m²)
16.57

Purposes: comms

External: N2YO · Heavens-Above · Gunter

§ Orbital elements

Epoch: 2026-09-19T20:07:55.631712Z

Period
1,436.12 min
Inclination
0.0187°
Eccentricity
0.0000393
Mean motion
1.00270464 rev/d
Perigee alt
35,785.3 km
Apogee alt
35,788.6 km
Semi-major
42,165.1 km
B*
0.0000e+0
RAAN
155.3587°
Arg perigee
332.8271°
Mean anomaly
117.5231°
Rev number
4,194

§ Raw data

INMARSAT 5-F21 40384U 15005A   26262.83883833 -.00000290  00000+0  00000+0 0  99922 40384   0.0187 155.3587 0000393 332.8271 117.5231  1.00270464 41944

JSON: /api/v1/satellites/40384 · /tle

For live sub-satellite position, see the globe view (requires WebGL).

§ Visibility from observer

Set your observer location to see the next 7 days of passes ≥ 10°. The values pass through the URL so the page stays shareable.

No JS? Fill the form by hand. The geolocation button needs JavaScript.